SAS1601 GCLP-ESSA

Flight info

Callsign SAS1601
Flight time N/A
Altitude 36000
Route VASTO DCT BAROK/N0450F380 DCT VATZI DCT BARDI DCT ZMR DCT NUBLO DCT RONSI DCT DELOG DCT PEXOD DCT DIDIG DCT USODA DCT ERCUT DCT DITAL UN873 BAZOS DCT BELDI/N0447F390 DCT VICOT DCT PAM DCT BEDUM N873 HUNQI DCT ATTUS DCT LAPMA DCT TOPLA DCT LUKAX DCT DETSO N873 ARS T317 ELTOK
Aircraft A20N/M-SDE2E3FGHIRWXY/LB1

Departure

Time 2026-04-27 10:15
Airport Gran Canaria Airport (GCLP)

Arrival

Time N/A
Airport Stockholm-Arlanda Airport (ESSA)
Time Latitude Longitude Altitude Speed Heading
2026-04-27 10:02 27.93578 -15.38942 117 ft 0 kts 291°
2026-04-27 10:06 27.93578 -15.38941 117 ft 0 kts 292°
2026-04-27 10:07 27.93574 -15.38929 116 ft 2 kts 291°
2026-04-27 10:07 27.93568 -15.38913 115 ft 2 kts 291°
2026-04-27 10:07 27.93563 -15.38898 114 ft 2 kts 291°
2026-04-27 10:07 27.93558 -15.38883 113 ft 1 kts 291°
2026-04-27 10:08 27.93555 -15.38873 112 ft 2 kts 268°
2026-04-27 10:08 27.93559 -15.38856 112 ft 2 kts 227°
2026-04-27 10:08 27.93568 -15.38849 112 ft 0 kts 201°
2026-04-27 10:08 27.93572 -15.38848 112 ft 0 kts 195°
2026-04-27 10:09 27.93573 -15.38847 112 ft 0 kts 197°
2026-04-27 10:09 27.93576 -15.38846 112 ft 2 kts 199°
2026-04-27 10:10 27.93579 -15.38845 112 ft 0 kts 199°
2026-04-27 10:11 27.93577 -15.38846 112 ft 1 kts 199°
2026-04-27 10:11 27.93548 -15.38857 111 ft 7 kts 199°
2026-04-27 10:11 27.93482 -15.38878 110 ft 12 kts 180°
2026-04-27 10:12 27.93415 -15.38784 101 ft 20 kts 116°
2026-04-27 10:12 27.93356 -15.38780 99 ft 9 kts 190°
2026-04-27 10:12 27.93261 -15.38819 98 ft 19 kts 201°
2026-04-27 10:12 27.93105 -15.38894 98 ft 28 kts 205°
2026-04-27 10:13 27.92913 -15.38979 99 ft 29 kts 201°
2026-04-27 10:13 27.92731 -15.39062 104 ft 26 kts 200°
2026-04-27 10:13 27.92571 -15.39133 109 ft 23 kts 201°
2026-04-27 10:13 27.92422 -15.39164 111 ft 21 kts 183°
2026-04-27 10:14 27.92272 -15.39174 111 ft 21 kts 184°
2026-04-27 10:14 27.92229 -15.39089 104 ft 13 kts 31°
2026-04-27 10:14 27.92342 -15.39035 101 ft 38 kts 21°
2026-04-27 10:14 27.92840 -15.38817 85 ft 112 kts 21°
2026-04-27 10:15 27.93754 -15.38405 192 ft 159 kts 19°
2026-04-27 10:15 27.94822 -15.37889 653 ft 176 kts 20°
2026-04-27 10:15 27.95985 -15.37339 1300 ft 188 kts 21°
2026-04-27 10:15 27.97177 -15.36830 2102 ft 183 kts 18°
2026-04-27 10:16 27.98401 -15.36337 2667 ft 188 kts 19°
2026-04-27 10:16 27.99637 -15.35831 3271 ft 191 kts 19°
2026-04-27 10:16 28.00871 -15.35312 3894 ft 192 kts 20°
2026-04-27 10:16 28.02127 -15.34779 4473 ft 195 kts 20°
2026-04-27 10:17 28.03401 -15.34235 5044 ft 199 kts 20°
2026-04-27 10:17 28.04702 -15.33675 5621 ft 202 kts 21°
2026-04-27 10:17 28.06022 -15.33103 6172 ft 207 kts 21°
2026-04-27 10:17 28.07443 -15.32486 6459 ft 229 kts 21°
2026-04-27 10:18 28.08984 -15.31814 6870 ft 246 kts 21°
2026-04-27 10:18 28.10645 -15.31091 7309 ft 263 kts 21°
2026-04-27 10:18 28.12370 -15.30341 7940 ft 272 kts 21°
2026-04-27 10:18 28.14149 -15.29607 8679 ft 275 kts 18°
2026-04-27 10:19 28.16024 -15.29006 9420 ft 280 kts 15°
2026-04-27 10:19 28.17906 -15.28465 10128 ft 284 kts 14°
2026-04-27 10:19 28.19840 -15.27917 10685 ft 294 kts 14°
2026-04-27 10:19 28.21909 -15.27330 11021 ft 312 kts 14°
2026-04-27 10:20 28.24070 -15.26716 11330 ft 329 kts 14°
2026-04-27 10:20 28.26303 -15.26079 11846 ft 337 kts 14°
2026-04-27 10:20 28.28595 -15.25425 12552 ft 340 kts 14°
2026-04-27 10:20 28.30894 -15.24734 13228 ft 342 kts 17°
2026-04-27 10:21 28.33123 -15.23759 13896 ft 346 kts 24°
2026-04-27 10:21 28.35225 -15.22463 14533 ft 350 kts 31°
2026-04-27 10:21 28.37279 -15.20966 15136 ft 354 kts 32°
2026-04-27 10:21 28.39353 -15.19411 15709 ft 358 kts 32°
2026-04-27 10:22 28.41436 -15.17843 16285 ft 362 kts 32°
2026-04-27 10:22 28.43543 -15.16259 16857 ft 365 kts 32°
2026-04-27 10:22 28.45677 -15.14658 17421 ft 369 kts 32°
2026-04-27 10:22 28.47829 -15.13046 17960 ft 372 kts 32°
2026-04-27 10:23 28.50002 -15.11419 18469 ft 376 kts 32°
2026-04-27 10:23 28.52210 -15.09765 18998 ft 379 kts 32°
2026-04-27 10:23 28.54401 -15.08122 19520 ft 381 kts 32°
2026-04-27 10:23 28.56609 -15.06465 20041 ft 384 kts 32°
2026-04-27 10:24 28.58835 -15.04795 20571 ft 385 kts 32°
2026-04-27 10:24 28.61091 -15.03101 21073 ft 388 kts 32°
2026-04-27 10:24 28.63355 -15.01400 21562 ft 390 kts 32°
2026-04-27 10:24 28.65623 -14.99696 22048 ft 392 kts 32°
2026-04-27 10:25 28.67916 -14.97973 22518 ft 394 kts 32°
2026-04-27 10:25 28.70190 -14.96262 22964 ft 397 kts 32°
2026-04-27 10:25 28.72512 -14.94513 23414 ft 399 kts 32°
2026-04-27 10:25 28.74832 -14.92767 23833 ft 401 kts 32°
2026-04-27 10:26 28.77173 -14.91001 24251 ft 404 kts 32°
2026-04-27 10:26 28.79502 -14.89246 24655 ft 407 kts 32°
2026-04-27 10:26 28.81876 -14.87454 25055 ft 409 kts 32°
2026-04-27 10:26 28.84254 -14.85658 25459 ft 412 kts 32°
2026-04-27 10:27 28.86657 -14.83845 25858 ft 414 kts 32°
2026-04-27 10:27 28.89071 -14.82024 26238 ft 417 kts 32°
2026-04-27 10:27 28.91465 -14.80219 26609 ft 419 kts 32°
2026-04-27 10:27 28.93932 -14.78356 27003 ft 421 kts 32°
2026-04-27 10:28 28.96351 -14.76529 27381 ft 424 kts 32°
2026-04-27 10:28 28.98830 -14.74653 27755 ft 426 kts 32°
2026-04-27 10:28 29.01312 -14.72774 28122 ft 428 kts 32°
2026-04-27 10:28 29.03768 -14.70913 28467 ft 431 kts 32°
2026-04-27 10:29 29.06290 -14.69000 28821 ft 433 kts 32°
2026-04-27 10:29 29.08811 -14.67086 29170 ft 436 kts 32°
2026-04-27 10:29 29.11345 -14.65161 29544 ft 437 kts 32°
2026-04-27 10:29 29.13855 -14.63254 29894 ft 440 kts 32°
2026-04-27 10:30 29.16433 -14.61293 30281 ft 441 kts 32°
2026-04-27 10:30 29.18985 -14.59352 30721 ft 440 kts 32°
2026-04-27 10:30 29.21516 -14.57425 31159 ft 439 kts 32°
2026-04-27 10:30 29.24049 -14.55496 31549 ft 439 kts 32°
2026-04-27 10:31 29.26599 -14.53552 31990 ft 437 kts 32°
2026-04-27 10:31 29.29138 -14.51616 32406 ft 436 kts 32°
2026-04-27 10:31 29.31664 -14.49690 32805 ft 436 kts 32°
2026-04-27 10:31 29.34152 -14.47789 33178 ft 436 kts 32°
2026-04-27 10:32 29.36701 -14.45843 33565 ft 435 kts 32°
2026-04-27 10:32 29.39208 -14.43925 33926 ft 435 kts 32°
2026-04-27 10:32 29.41725 -14.41999 34256 ft 435 kts 32°
2026-04-27 10:32 29.44231 -14.40080 34526 ft 435 kts 32°
2026-04-27 10:33 29.46753 -14.38146 34799 ft 435 kts 32°
2026-04-27 10:33 29.49240 -14.36239 35076 ft 435 kts 32°
2026-04-27 10:33 29.51775 -14.34296 35347 ft 435 kts 32°
2026-04-27 10:33 29.54289 -14.32366 35599 ft 435 kts 32°
2026-04-27 10:34 29.56787 -14.30449 35831 ft 435 kts 32°
2026-04-27 10:34 29.59324 -14.28502 35988 ft 436 kts 32°
2026-04-27 10:34 29.64377 -14.24617 36016 ft 436 kts 32°
2026-04-27 10:35 29.69410 -14.20738 36018 ft 437 kts 32°
2026-04-27 10:35 29.74460 -14.16844 36014 ft 438 kts 32°
2026-04-27 10:36 29.79503 -14.12957 36018 ft 437 kts 32°
2026-04-27 10:36 29.84574 -14.09044 36012 ft 438 kts 32°
2026-04-27 10:37 29.89637 -14.05130 36013 ft 438 kts 32°
2026-04-27 10:37 29.94699 -14.01210 36012 ft 438 kts 33°
2026-04-27 10:38 29.99759 -13.97287 36010 ft 438 kts 33°
2026-04-27 10:38 30.04803 -13.93369 36000 ft 438 kts 33°
2026-04-27 10:39 30.09870 -13.89428 36005 ft 437 kts 33°
2026-04-27 10:39 30.14898 -13.85511 36000 ft 438 kts 33°
2026-04-27 10:40 30.19956 -13.81569 36000 ft 438 kts 33°
2026-04-27 10:40 30.25020 -13.77617 36002 ft 438 kts 33°
2026-04-27 10:41 30.30054 -13.73683 35995 ft 438 kts 33°
2026-04-27 10:41 30.35087 -13.69745 36003 ft 438 kts 33°
2026-04-27 10:42 30.40158 -13.65766 36002 ft 438 kts 33°
2026-04-27 10:42 30.45173 -13.61830 35995 ft 438 kts 33°
2026-04-27 10:43 30.50277 -13.57882 35997 ft 439 kts 31°
2026-04-27 10:43 30.55582 -13.54456 35999 ft 439 kts 26°
2026-04-27 10:44 30.61001 -13.51180 35995 ft 441 kts 26°
2026-04-27 10:44 30.66462 -13.47871 35992 ft 441 kts 27°
2026-04-27 10:45 30.71900 -13.44564 35993 ft 441 kts 27°
2026-04-27 10:45 30.77309 -13.41265 35992 ft 440 kts 27°
2026-04-27 10:46 30.82703 -13.37971 35989 ft 440 kts 27°
2026-04-27 10:46 30.88125 -13.34655 35984 ft 441 kts 27°
2026-04-27 10:47 30.93557 -13.31328 35994 ft 441 kts 27°
2026-04-27 10:47 30.98988 -13.27999 35989 ft 442 kts 27°
2026-04-27 10:48 31.04416 -13.24669 35983 ft 441 kts 27°
2026-04-27 10:48 31.09867 -13.21318 35988 ft 441 kts 28°
2026-04-27 10:49 31.15259 -13.17999 35988 ft 441 kts 28°
2026-04-27 10:49 31.20714 -13.14637 35985 ft 442 kts 28°
2026-04-27 10:50 31.26149 -13.11283 35984 ft 442 kts 28°
2026-04-27 10:50 31.31599 -13.07916 35980 ft 443 kts 28°
2026-04-27 10:51 31.37035 -13.04552 35985 ft 443 kts 28°
2026-04-27 10:51 31.42471 -13.01185 35981 ft 443 kts 28°
2026-04-27 10:52 31.47897 -12.97819 35985 ft 443 kts 28°
2026-04-27 10:52 31.53336 -12.94441 35981 ft 443 kts 28°
2026-04-27 10:53 31.61531 -12.89341 35984 ft 444 kts 28°
2026-04-27 10:54 31.66954 -12.85962 35980 ft 444 kts 28°
2026-04-27 10:54 31.72406 -12.82561 35980 ft 444 kts 28°
2026-04-27 10:55 31.77878 -12.79140 35980 ft 444 kts 28°
2026-04-27 10:55 31.83346 -12.75718 35979 ft 444 kts 28°
2026-04-27 10:56 31.88769 -12.72320 35985 ft 444 kts 28°
2026-04-27 10:56 31.94220 -12.68901 35977 ft 444 kts 28°
2026-04-27 10:57 31.99686 -12.65467 35972 ft 444 kts 28°
2026-04-27 10:57 32.05128 -12.62044 35974 ft 444 kts 28°
2026-04-27 10:58 32.10583 -12.58607 35975 ft 444 kts 28°
2026-04-27 10:58 32.16014 -12.55180 35980 ft 445 kts 28°
2026-04-27 10:59 32.21479 -12.51728 35974 ft 445 kts 28°
2026-04-27 10:59 32.26945 -12.48270 35970 ft 445 kts 28°
2026-04-27 11:00 32.35113 -12.43094 35980 ft 445 kts 28°
2026-04-27 11:00 32.40597 -12.39613 35973 ft 445 kts 28°
2026-04-27 11:01 32.46032 -12.36159 35970 ft 445 kts 28°
2026-04-27 11:01 32.51481 -12.32692 35977 ft 446 kts 29°
2026-04-27 11:02 32.56945 -12.29208 35972 ft 446 kts 29°
2026-04-27 11:02 32.62419 -12.25714 35975 ft 446 kts 29°
2026-04-27 11:03 32.67859 -12.22236 35971 ft 446 kts 29°
2026-04-27 11:03 32.73298 -12.18755 35965 ft 446 kts 29°
2026-04-27 11:04 32.78771 -12.15248 35967 ft 447 kts 29°
2026-04-27 11:04 32.84241 -12.11736 35960 ft 447 kts 29°
2026-04-27 11:05 32.89698 -12.08229 35961 ft 447 kts 29°
2026-04-27 11:05 32.95174 -12.04703 35961 ft 447 kts 29°
2026-04-27 11:06 33.00648 -12.01176 35960 ft 447 kts 29°
2026-04-27 11:06 33.06125 -11.97640 35963 ft 447 kts 29°
2026-04-27 11:07 33.11583 -11.94112 36032 ft 450 kts 29°
2026-04-27 11:07 33.14348 -11.92322 36324 ft 450 kts 29°
2026-04-27 11:07 33.17085 -11.90549 36668 ft 449 kts 29°
2026-04-27 11:08 33.19849 -11.88757 36909 ft 450 kts 29°
2026-04-27 11:08 33.22610 -11.86966 37093 ft 452 kts 29°
2026-04-27 11:08 33.25382 -11.85167 37284 ft 454 kts 28°
2026-04-27 11:08 33.28162 -11.83361 37486 ft 455 kts 28°
2026-04-27 11:09 33.30927 -11.81564 37676 ft 456 kts 28°
2026-04-27 11:09 33.33725 -11.79745 37840 ft 457 kts 28°
2026-04-27 11:09 33.36533 -11.77917 37953 ft 459 kts 28°
2026-04-27 11:09 33.39299 -11.76116 37954 ft 459 kts 28°
2026-04-27 11:10 33.44938 -11.72440 37956 ft 460 kts 28°
2026-04-27 11:10 33.50544 -11.68779 37953 ft 461 kts 28°
2026-04-27 11:11 33.56177 -11.65095 37958 ft 460 kts 28°
2026-04-27 11:11 33.61780 -11.61424 37961 ft 460 kts 28°
2026-04-27 11:12 33.67389 -11.57744 37957 ft 460 kts 28°
2026-04-27 11:12 33.73024 -11.54042 37959 ft 461 kts 28°
2026-04-27 11:13 33.78622 -11.50358 37966 ft 461 kts 28°
2026-04-27 11:13 33.84263 -11.46641 37954 ft 462 kts 28°
2026-04-27 11:14 33.89863 -11.42946 37958 ft 462 kts 28°
2026-04-27 11:14 33.95513 -11.39211 37957 ft 462 kts 28°
2026-04-27 11:15 34.01133 -11.35490 37958 ft 463 kts 28°
2026-04-27 11:15 34.06761 -11.31757 37955 ft 462 kts 29°
2026-04-27 11:16 34.12392 -11.28018 37950 ft 462 kts 29°
2026-04-27 11:16 34.18025 -11.24272 37948 ft 462 kts 29°
2026-04-27 11:17 34.23685 -11.20501 37947 ft 463 kts 29°
2026-04-27 11:17 34.29299 -11.16756 37952 ft 463 kts 29°
2026-04-27 11:18 34.34928 -11.12995 37950 ft 463 kts 29°
2026-04-27 11:18 34.40557 -11.09229 37951 ft 463 kts 29°
2026-04-27 11:19 34.46169 -11.05467 37953 ft 463 kts 29°
2026-04-27 11:19 34.51808 -11.01681 37948 ft 462 kts 29°
2026-04-27 11:20 34.57429 -10.97903 37949 ft 463 kts 29°
2026-04-27 11:20 34.63077 -10.94100 37941 ft 463 kts 29°
2026-04-27 11:21 34.68671 -10.90328 37946 ft 463 kts 29°
2026-04-27 11:21 34.74292 -10.86530 37946 ft 463 kts 29°
2026-04-27 11:22 34.79968 -10.82692 37948 ft 463 kts 29°
2026-04-27 11:22 34.85594 -10.78880 37947 ft 463 kts 29°
2026-04-27 11:23 34.91185 -10.75085 37946 ft 463 kts 29°
2026-04-27 11:23 34.96843 -10.71238 37944 ft 463 kts 29°
2026-04-27 11:24 35.02459 -10.67416 37945 ft 464 kts 29°
2026-04-27 11:24 35.08150 -10.63534 37944 ft 472 kts 29°
2026-04-27 11:25 35.13886 -10.59615 37947 ft 475 kts 29°
2026-04-27 11:25 35.19637 -10.55681 37949 ft 475 kts 29°
2026-04-27 11:26 35.25425 -10.51717 37950 ft 475 kts 29°
2026-04-27 11:26 35.31174 -10.47771 37951 ft 475 kts 29°
2026-04-27 11:27 35.36913 -10.43824 37952 ft 475 kts 29°
2026-04-27 11:27 35.42660 -10.39866 37953 ft 475 kts 29°
2026-04-27 11:28 35.48409 -10.35900 37954 ft 475 kts 29°
2026-04-27 11:28 35.54185 -10.31910 37946 ft 475 kts 30°
2026-04-27 11:29 35.59943 -10.27924 37947 ft 476 kts 30°
2026-04-27 11:29 35.65706 -10.23930 37948 ft 476 kts 30°
2026-04-27 11:30 35.71476 -10.19923 37949 ft 476 kts 30°
2026-04-27 11:30 35.77204 -10.15938 37947 ft 476 kts 30°
2026-04-27 11:31 35.82999 -10.11899 37948 ft 476 kts 30°
2026-04-27 11:31 35.88752 -10.07883 37953 ft 477 kts 30°
2026-04-27 11:32 35.94521 -10.03847 37953 ft 476 kts 30°
2026-04-27 11:32 36.00314 -9.99808 37955 ft 476 kts 30°
2026-04-27 11:33 36.06053 -9.95826 37960 ft 476 kts 30°
2026-04-27 11:33 36.11843 -9.91798 37955 ft 476 kts 30°
2026-04-27 11:34 36.17601 -9.87782 37957 ft 477 kts 30°
2026-04-27 11:34 36.23358 -9.83758 37957 ft 477 kts 30°
2026-04-27 11:35 36.29131 -9.79716 37957 ft 477 kts 30°
2026-04-27 11:35 36.34900 -9.75670 37962 ft 477 kts 30°
2026-04-27 11:36 36.40683 -9.71607 37963 ft 476 kts 30°
2026-04-27 11:36 36.46455 -9.67546 37960 ft 476 kts 30°
2026-04-27 11:37 36.52216 -9.63484 37957 ft 476 kts 30°
2026-04-27 11:37 36.57959 -9.59428 37954 ft 476 kts 30°
2026-04-27 11:38 36.63705 -9.55362 37953 ft 476 kts 30°
2026-04-27 11:38 36.69442 -9.51297 37953 ft 475 kts 30°
2026-04-27 11:39 36.75183 -9.47221 37953 ft 475 kts 30°
2026-04-27 11:39 36.80919 -9.43143 37955 ft 475 kts 30°
2026-04-27 11:40 36.86662 -9.39053 37956 ft 475 kts 30°
2026-04-27 11:40 36.89518 -9.37015 38157 ft 475 kts 30°
2026-04-27 11:40 36.92347 -9.34996 38041 ft 474 kts 30°
2026-04-27 11:41 36.98073 -9.30902 37970 ft 473 kts 31°
2026-04-27 11:41 37.03802 -9.26798 37959 ft 473 kts 31°
2026-04-27 11:42 37.06654 -9.24753 37779 ft 472 kts 31°
2026-04-27 11:42 37.09486 -9.22720 37901 ft 473 kts 30°
2026-04-27 11:42 37.15196 -9.18616 37955 ft 474 kts 30°
2026-04-27 11:43 37.20922 -9.14495 37961 ft 474 kts 30°
2026-04-27 11:43 37.26634 -9.10375 37966 ft 474 kts 30°
2026-04-27 11:44 37.32358 -9.06241 37970 ft 474 kts 31°
2026-04-27 11:44 37.38037 -9.02131 37970 ft 474 kts 31°
2026-04-27 11:45 37.42799 -8.98676 37981 ft 475 kts 31°
2026-04-27 11:45 37.49497 -8.93811 37981 ft 475 kts 30°
2026-04-27 11:46 37.55206 -8.89653 37978 ft 475 kts 30°
2026-04-27 11:46 37.60906 -8.85412 37983 ft 474 kts 32°
2026-04-27 11:47 37.66423 -8.80939 37978 ft 474 kts 33°
2026-04-27 11:47 37.71978 -8.76384 37984 ft 474 kts 33°
2026-04-27 11:48 37.77497 -8.71856 37977 ft 474 kts 33°
2026-04-27 11:48 37.83012 -8.67328 37980 ft 473 kts 33°
2026-04-27 11:49 37.88530 -8.62793 37988 ft 474 kts 33°
2026-04-27 11:49 37.94044 -8.58252 37975 ft 475 kts 33°
2026-04-27 11:50 37.99567 -8.53697 37985 ft 475 kts 33°
2026-04-27 11:50 38.05098 -8.49126 37973 ft 474 kts 33°
2026-04-27 11:51 38.10591 -8.44577 37968 ft 473 kts 33°
2026-04-27 11:52 38.18882 -8.37697 37955 ft 473 kts 33°
2026-04-27 11:52 38.24363 -8.33140 37959 ft 472 kts 34°
2026-04-27 11:53 38.29859 -8.28559 37966 ft 473 kts 34°
2026-04-27 11:53 38.35343 -8.23982 37960 ft 474 kts 34°
2026-04-27 11:54 38.40875 -8.19356 37967 ft 474 kts 34°
2026-04-27 11:54 38.46365 -8.14755 37976 ft 474 kts 33°
2026-04-27 11:55 38.51866 -8.10137 37976 ft 474 kts 33°
2026-04-27 11:55 38.57371 -8.05508 37979 ft 474 kts 33°
2026-04-27 11:56 38.62879 -8.00867 37978 ft 473 kts 33°
2026-04-27 11:56 38.68369 -7.96233 37988 ft 473 kts 33°
2026-04-27 11:57 38.73851 -7.91596 37996 ft 473 kts 33°
2026-04-27 11:57 38.79331 -7.86953 37999 ft 474 kts 33°
2026-04-27 11:58 38.84808 -7.82304 37991 ft 474 kts 33°
2026-04-27 11:58 38.90302 -7.77632 37991 ft 474 kts 33°
2026-04-27 11:59 38.95747 -7.72993 37989 ft 473 kts 33°
2026-04-27 11:59 39.01221 -7.68320 37987 ft 473 kts 33°
2026-04-27 12:00 39.06711 -7.63623 37994 ft 473 kts 33°
2026-04-27 12:00 39.12186 -7.58931 37995 ft 473 kts 33°
2026-04-27 12:01 39.17638 -7.54251 38001 ft 473 kts 33°
2026-04-27 12:01 39.23143 -7.49517 38004 ft 474 kts 33°
2026-04-27 12:02 39.28634 -7.44783 38005 ft 475 kts 33°
2026-04-27 12:02 39.34131 -7.40037 38009 ft 475 kts 33°
2026-04-27 12:03 39.39597 -7.35308 38012 ft 475 kts 33°
2026-04-27 12:03 39.45087 -7.30550 38020 ft 476 kts 34°
2026-04-27 12:04 39.50608 -7.25755 38023 ft 476 kts 33°
2026-04-27 12:04 39.56077 -7.20996 38021 ft 477 kts 33°
2026-04-27 12:05 39.61594 -7.16186 38022 ft 477 kts 33°
2026-04-27 12:05 39.67121 -7.11358 38024 ft 477 kts 33°
2026-04-27 12:06 39.72595 -7.06567 38020 ft 477 kts 33°
2026-04-27 12:06 39.78108 -7.01732 38023 ft 478 kts 33°
2026-04-27 12:07 39.83602 -6.96903 38025 ft 477 kts 33°
2026-04-27 12:07 39.89115 -6.92050 38019 ft 477 kts 33°
2026-04-27 12:08 39.94616 -6.87196 38020 ft 478 kts 33°
2026-04-27 12:08 40.00108 -6.82343 38022 ft 477 kts 33°
2026-04-27 12:09 40.05572 -6.77505 38030 ft 477 kts 33°
2026-04-27 12:09 40.11048 -6.72645 38048 ft 475 kts 33°
2026-04-27 12:10 40.16517 -6.67781 38064 ft 475 kts 33°
2026-04-27 12:10 40.21960 -6.62931 38072 ft 476 kts 33°
2026-04-27 12:11 40.27409 -6.58067 38076 ft 476 kts 33°
2026-04-27 12:11 40.32880 -6.53172 38073 ft 477 kts 33°
2026-04-27 12:12 40.38310 -6.48306 38069 ft 477 kts 33°
2026-04-27 12:12 40.43804 -6.43372 38068 ft 477 kts 33°
2026-04-27 12:13 40.49255 -6.38465 38071 ft 476 kts 33°
2026-04-27 12:13 40.54733 -6.33523 38066 ft 476 kts 33°
2026-04-27 12:14 40.60301 -6.28913 38072 ft 475 kts 27°
2026-04-27 12:14 40.66121 -6.24853 38069 ft 474 kts 26°
2026-04-27 12:15 40.71976 -6.20833 38071 ft 474 kts 26°
2026-04-27 12:15 40.77828 -6.16793 38069 ft 475 kts 26°
2026-04-27 12:16 40.83664 -6.12745 38073 ft 475 kts 26°
2026-04-27 12:16 40.89481 -6.08700 38075 ft 475 kts 26°
2026-04-27 12:17 40.95339 -6.04619 38077 ft 475 kts 26°
2026-04-27 12:17 41.01142 -6.00567 38078 ft 474 kts 26°
2026-04-27 12:18 41.07000 -5.96471 38077 ft 474 kts 26°
2026-04-27 12:18 41.12846 -5.92372 38075 ft 475 kts 26°
2026-04-27 12:19 41.18712 -5.88254 38078 ft 474 kts 26°
2026-04-27 12:19 41.24543 -5.84149 38078 ft 475 kts 26°
2026-04-27 12:20 41.30392 -5.80021 38076 ft 475 kts 26°
2026-04-27 12:20 41.36205 -5.75913 38073 ft 475 kts 26°
2026-04-27 12:21 41.42030 -5.71786 38070 ft 475 kts 26°
2026-04-27 12:21 41.47826 -5.67672 38064 ft 474 kts 26°
2026-04-27 12:22 41.53365 -5.63843 38059 ft 473 kts 22°
2026-04-27 12:22 41.58740 -5.60715 38062 ft 473 kts 20°
2026-04-27 12:23 41.64814 -5.57317 38063 ft 473 kts 20°
2026-04-27 12:23 41.70851 -5.53924 38066 ft 473 kts 20°
2026-04-27 12:24 41.76938 -5.50485 38066 ft 473 kts 20°
2026-04-27 12:24 41.82950 -5.47077 38067 ft 472 kts 20°
2026-04-27 12:25 41.88979 -5.43651 38067 ft 472 kts 20°
2026-04-27 12:25 41.95038 -5.40202 38067 ft 473 kts 20°
2026-04-27 12:26 42.01094 -5.36748 38067 ft 472 kts 20°
2026-04-27 12:26 42.07132 -5.33295 38066 ft 473 kts 20°
2026-04-27 12:27 42.13161 -5.29841 38074 ft 474 kts 20°
2026-04-27 12:27 42.19196 -5.26376 38078 ft 474 kts 20°
2026-04-27 12:28 42.25265 -5.22884 38077 ft 474 kts 20°
2026-04-27 12:28 42.31321 -5.19392 38088 ft 474 kts 20°
2026-04-27 12:29 42.37384 -5.15890 38085 ft 474 kts 20°
2026-04-27 12:29 42.43458 -5.12373 38096 ft 474 kts 20°
2026-04-27 12:30 42.49514 -5.08860 38101 ft 475 kts 20°
2026-04-27 12:30 42.55557 -5.05346 38105 ft 475 kts 20°
2026-04-27 12:31 42.61637 -5.01803 38108 ft 475 kts 20°
2026-04-27 12:31 42.67695 -4.98265 38114 ft 476 kts 20°
2026-04-27 12:32 42.73746 -4.94725 38117 ft 476 kts 20°
2026-04-27 12:32 42.79827 -4.91157 38126 ft 475 kts 20°
2026-04-27 12:33 42.85866 -4.87608 38139 ft 475 kts 20°
2026-04-27 12:33 42.91918 -4.84043 38138 ft 476 kts 20°
2026-04-27 12:34 42.97993 -4.80459 38140 ft 476 kts 20°
2026-04-27 12:34 43.04037 -4.76883 38142 ft 477 kts 20°
2026-04-27 12:35 43.10102 -4.73288 38142 ft 477 kts 20°
2026-04-27 12:35 43.16180 -4.69675 38136 ft 477 kts 20°
2026-04-27 12:36 43.22271 -4.66049 38120 ft 477 kts 20°
2026-04-27 12:36 43.28322 -4.62437 38107 ft 476 kts 20°
2026-04-27 12:37 43.34409 -4.58797 38093 ft 477 kts 20°
2026-04-27 12:37 43.40467 -4.55165 38075 ft 477 kts 20°
2026-04-27 12:38 43.46550 -4.51510 38071 ft 478 kts 20°
2026-04-27 12:38 43.52622 -4.47856 38065 ft 478 kts 20°
2026-04-27 12:39 43.58716 -4.44179 38069 ft 479 kts 20°
2026-04-27 12:39 43.64784 -4.40511 38074 ft 478 kts 20°
2026-04-27 12:40 43.70878 -4.36819 38071 ft 479 kts 20°
2026-04-27 12:40 43.76970 -4.33118 38082 ft 479 kts 21°
2026-04-27 12:41 43.83021 -4.29435 38086 ft 479 kts 21°
2026-04-27 12:41 43.89130 -4.25708 38087 ft 480 kts 21°
2026-04-27 12:42 43.95229 -4.21977 38099 ft 480 kts 21°
2026-04-27 12:42 44.01329 -4.18239 38102 ft 480 kts 21°
2026-04-27 12:43 44.07422 -4.14496 38098 ft 481 kts 21°
2026-04-27 12:43 44.13504 -4.10752 38106 ft 481 kts 21°
2026-04-27 12:44 44.19614 -4.06980 38107 ft 481 kts 21°
2026-04-27 12:44 44.25730 -4.03199 38102 ft 481 kts 21°
2026-04-27 12:45 44.31790 -3.99231 38103 ft 483 kts 25°
2026-04-27 12:45 44.37532 -3.94370 38107 ft 485 kts 32°
2026-04-27 12:46 44.43072 -3.89025 38113 ft 486 kts 33°
2026-04-27 12:46 44.48481 -3.83758 38108 ft 485 kts 33°
2026-04-27 12:47 44.54015 -3.78385 38109 ft 486 kts 32°
2026-04-27 12:47 44.59546 -3.73014 38111 ft 486 kts 32°
2026-04-27 12:48 44.65104 -3.67606 38110 ft 486 kts 32°
2026-04-27 12:48 44.70652 -3.62197 38102 ft 486 kts 32°
2026-04-27 12:49 44.76157 -3.56818 38111 ft 486 kts 32°
2026-04-27 12:49 44.81701 -3.51387 38108 ft 486 kts 32°
2026-04-27 12:50 44.87210 -3.45977 38111 ft 486 kts 32°
2026-04-27 12:50 44.92763 -3.40512 38108 ft 486 kts 32°
2026-04-27 12:51 44.98305 -3.35044 38103 ft 487 kts 32°
2026-04-27 12:51 45.03798 -3.29612 38105 ft 486 kts 33°
2026-04-27 12:52 45.09040 -3.24418 38104 ft 486 kts 33°
2026-04-27 12:52 45.14081 -3.19408 38112 ft 487 kts 33°
2026-04-27 12:53 45.15376 -3.18120 38106 ft 487 kts 33°
2026-04-27 12:53 45.19795 -3.13718 38108 ft 487 kts 33°
2026-04-27 12:54 45.25319 -3.08201 38115 ft 486 kts 33°
2026-04-27 12:54 45.30855 -3.02658 38114 ft 486 kts 33°
2026-04-27 12:55 45.36303 -2.97112 38099 ft 486 kts 34°
2026-04-27 12:55 45.41786 -2.91440 38115 ft 487 kts 34°
2026-04-27 12:56 45.47249 -2.85784 38118 ft 487 kts 34°
2026-04-27 12:56 45.52687 -2.80146 38106 ft 486 kts 34°
2026-04-27 12:57 45.58173 -2.74447 38124 ft 486 kts 34°
2026-04-27 12:57 45.63589 -2.68805 38105 ft 487 kts 34°
2026-04-27 12:58 45.69041 -2.63114 38115 ft 487 kts 34°
2026-04-27 12:58 45.74505 -2.57397 38126 ft 487 kts 34°
2026-04-27 12:59 45.79946 -2.51687 38113 ft 487 kts 34°
2026-04-27 12:59 45.85390 -2.45964 38125 ft 486 kts 34°
2026-04-27 13:00 45.90853 -2.40203 38126 ft 486 kts 34°
2026-04-27 13:00 45.96279 -2.34468 38151 ft 487 kts 35°
2026-04-27 13:01 46.01736 -2.28686 38119 ft 488 kts 35°
2026-04-27 13:01 46.07223 -2.23064 38121 ft 488 kts 32°
2026-04-27 13:02 46.12905 -2.17693 38119 ft 487 kts 32°
2026-04-27 13:02 46.18555 -2.12369 38120 ft 487 kts 32°
2026-04-27 13:03 46.24191 -2.07032 38123 ft 487 kts 32°
2026-04-27 13:03 46.29822 -2.01676 38138 ft 486 kts 32°
2026-04-27 13:04 46.35448 -1.96312 38122 ft 485 kts 32°
2026-04-27 13:04 46.41058 -1.90946 38118 ft 485 kts 32°
2026-04-27 13:05 46.46674 -1.85561 38117 ft 485 kts 32°
2026-04-27 13:05 46.52294 -1.80160 38128 ft 485 kts 32°
2026-04-27 13:06 46.57914 -1.74745 38120 ft 484 kts 32°
2026-04-27 13:06 46.63517 -1.69333 38129 ft 485 kts 32°
2026-04-27 13:07 46.69101 -1.63925 38134 ft 485 kts 32°
2026-04-27 13:07 46.74690 -1.58498 38131 ft 486 kts 32°
2026-04-27 13:08 46.80310 -1.53027 38135 ft 485 kts 32°
2026-04-27 13:08 46.85897 -1.47576 38144 ft 485 kts 32°
2026-04-27 13:09 46.91465 -1.42127 38130 ft 484 kts 32°
2026-04-27 13:09 46.96815 -1.36177 38131 ft 486 kts 39°
2026-04-27 13:10 47.01675 -1.29286 38129 ft 487 kts 47°
2026-04-27 13:10 47.06192 -1.21906 38139 ft 487 kts 48°
2026-04-27 13:11 47.10679 -1.14499 38137 ft 487 kts 48°
2026-04-27 13:11 47.15162 -1.07115 38143 ft 487 kts 47°
2026-04-27 13:12 47.19668 -0.99694 38144 ft 488 kts 47°
2026-04-27 13:12 47.24173 -0.92259 38146 ft 487 kts 47°
2026-04-27 13:13 47.28649 -0.84850 38134 ft 486 kts 47°
2026-04-27 13:13 47.33114 -0.77440 38143 ft 486 kts 47°
2026-04-27 13:14 47.37595 -0.69979 38133 ft 486 kts 47°
2026-04-27 13:14 47.42083 -0.62641 38140 ft 486 kts 44°
2026-04-27 13:15 47.47053 -0.55913 38138 ft 484 kts 37°
2026-04-27 13:15 47.52394 -0.49911 38140 ft 483 kts 34°
2026-04-27 13:16 47.57762 -0.44029 38146 ft 482 kts 34°
2026-04-27 13:16 47.63115 -0.38123 38156 ft 482 kts 34°
2026-04-27 13:17 47.68476 -0.32178 38137 ft 482 kts 36°
2026-04-27 13:17 47.73819 -0.26228 38148 ft 483 kts 35°
2026-04-27 13:18 47.79163 -0.20259 38155 ft 482 kts 35°
2026-04-27 13:18 47.84493 -0.14292 38137 ft 482 kts 35°
2026-04-27 13:19 47.89824 -0.08306 38151 ft 482 kts 35°
2026-04-27 13:19 47.95168 -0.02291 38149 ft 482 kts 35°
2026-04-27 13:20 48.00487 0.03712 38161 ft 482 kts 35°
2026-04-27 13:20 48.05835 0.09764 38167 ft 481 kts 35°
2026-04-27 13:21 48.11144 0.15788 38157 ft 482 kts 35°
2026-04-27 13:21 48.16447 0.21823 38158 ft 481 kts 35°
2026-04-27 13:22 48.21757 0.27879 38163 ft 480 kts 35°
2026-04-27 13:22 48.27050 0.33934 38165 ft 480 kts 35°
2026-04-27 13:23 48.32312 0.39969 38164 ft 480 kts 35°
2026-04-27 13:23 48.37613 0.46064 38167 ft 480 kts 35°
2026-04-27 13:24 48.42898 0.52158 38169 ft 479 kts 35°
2026-04-27 13:24 48.48158 0.58239 38168 ft 479 kts 35°
2026-04-27 13:25 48.53443 0.64364 38174 ft 479 kts 35°
2026-04-27 13:25 48.58699 0.70474 38166 ft 479 kts 36°
2026-04-27 13:26 48.63940 0.76583 38173 ft 479 kts 36°
2026-04-27 13:26 48.69183 0.82711 38173 ft 479 kts 36°
2026-04-27 13:27 48.74438 0.88868 38169 ft 479 kts 35°
2026-04-27 13:27 48.79738 0.94983 38172 ft 478 kts 35°
2026-04-27 13:28 48.85003 1.01029 38180 ft 479 kts 35°
2026-04-27 13:28 48.90289 1.07129 38180 ft 479 kts 35°
2026-04-27 13:29 48.95606 1.13289 38186 ft 479 kts 34°